Other Public Products
Issued by NWS Grand Forks, ND

Home | Current Version | Previous Version | Graphics & Text | Print | Product List | Glossary On
Versions: 1 2 3 4 5 6 7 8 9 10 11 12 13 14 15 16 17 18 19 20 21 22 23 24 25 26 27 28 29 30 31 32 33 34 35 36 37 38 39 40 41 42 43 44 45 46 47 48 49 50
000
FPUS83 KFGF 230931
OPUFGF
PRAIRIE TO PINES WEATHER ROUNDUP
NATIONAL WEATHER SERVICE EASTERN NORTH DAKOTA/GRAND FORKS ND
400 AM CDT SAT JUL 23 2016

 **SATELLITE DATA USED TO AUGMENT SKY COVER AT AUTOMATED STATIONS**
 *****  WEATHER ACROSS EASTERN NORTH DAKOTA  *****

CITY           SKY/WX    TMP DP  RH WIND       PRES   REMARKS
GRAND FORKS    CLOUDY    73  61  65 SE8       29.92F
GRAND FORKS AF CLOUDY    70  63  79 S8        29.92F
GRAND CITY NWS   N/A     70 N/A N/A E12         N/A
BUXTON           N/A     70  69  97 E12         N/A
DEVILS LAKE    CLOUDY    73  63  70 SE10      29.89F
FARGO          CLOUDY    76  63  64 E15       29.90F
WAHPETON ARPT  CLOUDY    72  66  83 E9        29.91F
$$

 *****  WEATHER ACROSS CENTRAL AND WESTERN NORTH DAKOTA  *****

CITY           SKY/WX    TMP DP  RH WIND       PRES   REMARKS
JAMESTOWN      CLOUDY    69  62  78 S9        29.92F
BISMARCK       MOCLDY    69  64  84 N14       29.84F
MINOT          RAIN      70  65  84 SW15G28   29.91R
MINOT AFB      LGT RAIN  68  64  88 S18G24    29.87R
GARRISON         N/A     65  65 100 NW14G26   29.93R
WILLISTON      RAIN      67  63  87 S14       29.87R
DICKINSON      PTCLDY    62  59  90 NE9       29.86F
HETTINGER      PTCLDY    66  60  81 SE10      29.87S
$$

 *****  OTHER OBSERVATIONS NORTHEAST NORTH DAKOTA  *****

CITY           SKY/WX    TMP DP  RH WIND       PRES   REMARKS
WALHALLA       FAIR      68  64  88 SE9       29.91R
LANGDON        FAIR      66  63  88 SE13      29.91F
CAVALIER       FAIR      68  63  83 SE6       29.92R
GRAFTON        FAIR      68  64  88 SE7       29.93F
CANDO          FAIR      66  64  94 CALM      29.91F
FORT TOTTEN      N/A     72  61  67 SE9       29.95S
ROLLA            N/A     66  63  88 S7        29.91S
RUGBY          NOT AVBL
 ***** THE ABOVE OBSERVATIONS ARE NON NWS ARE NOT QUALITY
        CONTROLLED AND MAY MIS-REPORT RAIN FOR SNOW...
$$

 *****  OTHER OBSERVATIONS SOUTHEAST NORTH DAKOTA *****

CITY           SKY/WX    TMP DP  RH WIND       PRES   REMARKS
COOPERSTOWN    NOT AVBL
VALLEY CITY      N/A     72  72 100 S7        29.92R
OAKES            N/A    N/A N/A N/A MISG        N/A
GWINNER        FAIR      72  70  94 E7        29.89F
BUFFALO          N/A     72  67  84 SE9         N/A
WYNDMERE         N/A     72  70  94 E6          N/A
 ***** THE ABOVE OBSERVATIONS ARE NON NWS ARE NOT QUALITY
       CONTROLLED AND MAY MIS-REPORT RAIN FOR SNOW...
$$

  *****  WEATHER ACROSS NORTHERN MINNESOTA  *****

CITY           SKY/WX    TMP DP  RH WIND       PRES   REMARKS
FLAG ISLAND    CLOUDY    70  61  73 E6        29.97F
WARROAD        MOCLDY    61  57  88 NE6       29.97F
ROSEAU         CLOUDY    63  55  77 SE3       29.97F
HALLOCK        CLOUDY    66  61  82 SE8       29.92F
THF RVR FALLS  CLOUDY    68  60  75 E7        29.98S
HALSTAD        NOT AVBL
FOSSTON        CLOUDY    64  63  94 E6        29.97F
BAUDETTE       MOCLDY    61  59  93 CALM      30.00S
WASKISH        CLOUDY    61  59  94 CALM      30.00S
CROOKSTON      CLOUDY    70  63  78 SE8       29.94F
$$
  *****  WEATHER ACROSS CENTRAL AND WEST MINNESOTA  *****

CITY           SKY/WX    TMP DP  RH WIND       PRES   REMARKS
BEMIDJI        CLOUDY    63  63 100 CALM      30.00F
PARK RAPIDS    CLOUDY    72  63  73 E6        30.00S
WADENA         CLOUDY    68  63  83 E5        29.99S
DETROIT LAKES  CLOUDY    73  59  60 SE9       29.97F
MOORHEAD       CLOUDY    73  63  68 SE12      29.91F
FERGUS FALLS   PTCLDY    75  66  73 E8        29.95F
ELBOW LAKE     FAIR      75  68  80 E9        29.96F
MORRIS MN      CLOUDY    75  66  73 E6        29.93F
STAPLES        CLOUDY    66  63  88 CALM      30.00S
WHEATON        MOCLDY    72  70  94 E5        29.94F
$$
  *****  WEATHER ELSEWHERE ACROSS MINNESOTA  *****

CITY           SKY/WX    TMP DP  RH WIND       PRES   REMARKS
DULUTH         MOCLDY    64  60  87 CALM      30.02R
INTRNTL FALLS  CLOUDY    58  56  93 CALM      30.00F
ELY            PTCLDY    55  54  94 CALM      30.03S
CLOQUET        MOCLDY    63  57  82 CALM      30.02F
BRAINERD       MOCLDY    70  64  81 CALM      30.00F
HIBBING        PTCLDY    56  56 100 CALM      30.02S
ALEXANDRIA     CLOUDY    74  68  81 E7        30.00R
SAINT CLOUD    CLOUDY    72  66  81 SE6       29.97S
MINNEAPOLIS    PTCLDY    77  66  68 E7        29.96R
$$

  *****  WEATHER ACROSS SOUTH DAKOTA  *****

CITY           SKY/WX    TMP DP  RH WIND       PRES   REMARKS
SIOUX FALLS    CLOUDY    80  77  90 E8        29.87F
BROOKINGS      CLOUDY    77  74  90 E8        29.92S
WATERTOWN      MOCLDY    77  67  71 E6        29.93F
HURON          CLOUDY    77  72  84 E8        29.86S
SISSETON         N/A     70  69  97 N3        29.91F
ABERDEEN       MOCLDY    75  68  78 E8        29.87F
MITCHELL       CLOUDY    81  79  94 SE7       29.84F HX  90
PIERRE         CLOUDY    78  71  79 E12       29.84R
MOBRIDGE       MOCLDY    70  61  73 CALM      29.85F
RAPID CITY     MOCLDY    69  55  60 SE10      29.91F
$$

  *****  SOME WEATHER IN NEARBY STATES *****

CITY           SKY/WX    TMP DP  RH WIND       PRES   REMARKS
GLASGOW MT     MOCLDY    66  58  75 W13       29.83R
GREAT FALLS MT PTCLDY    58  38  47 SW16      30.03F
CHEYENNE WY    CLOUDY    68  48  48 W7        30.16F
SCOTTSBLUFF NE PTCLDY    64  60  87 E6        29.97F
OMAHA NE       MOCLDY    83  74  74 SE10      29.88F
DES MOINES IA  CLOUDY    80  76  87 S12       29.90F
DAVENPORT IA   MOCLDY    74  72  93 CALM      29.99S
CHICAGO IL     PTCLDY    79  75  87 W3        29.98S
EAU CLAIRE WI  CLEAR     67  66  97 CALM      29.97S FOG
LA CROSSE WI   CLOUDY    76  73  91 SE3       29.96F
$$

  *****  SOME NATIONAL WEATHER *****

CITY           SKY/WX    TMP DP  RH WIND       PRES   REMARKS
LA GUARDIA NY  PTCLDY    84  65  52 NW13      29.82R
RALEIGH NC     PTCLDY    73  70  90 SW3       29.98F
ATLANTA GA     PTCLDY    77  71  82 SW3       30.04R
NEW ORLEANS LA MOCLDY    81  76  84 CALM      29.99S
OKLAHOMA CITY  CLEAR     74  68  81 S6        29.98S
ALBUQUERQUE NM PTCLDY    78  51  38 W6        30.19F
SALT LAKE CITY MOCLDY    71  42  35 MISG      30.09R
LOS ANGELES CA PTCLDY    72  59  63 E3        29.80F
BOISE ID       CLEAR     65  43  44 W12       30.11S
SEATTLE WA     MOCLDY    60  56  86 SW5       30.28F
$$

*** WEATHER ACROSS MANITOBA...SASKATCHEWAN AND ONTARIO ***
                ***ONTARIO***

CITY           SKY/WX    TMP DP  RH WIND       PRES   REMARKS
GERALDTON      PTCLDY    61  59  94 N5        29.99R
THUNDER BAY    CLEAR     61  59  94 W2        29.98R
SIOUX LOOKOUT  MOCLDY    54  54 100 CALM      30.00R
TORONTO        CLEAR     75  57  53 NW16      29.89F
BIG TROUT LK   CLEAR     48  43  81 SE3       30.05R
PICKLE LAKE    NOT AVBL
DRYDEN         CLEAR     61  57  88 W5        30.03R
KENORA         MOCLDY    64  57  77 E7        30.01F
$$
                *** MANITOBA***

CITY           SKY/WX    TMP DP  RH WIND       PRES   REMARKS
BRANDON        CLOUDY    66  63  88 SE8       29.88R
DAUPHIN        TSTM      63  59  88 SE6       29.84F
ISLAND LAKE    PTCLDY    55  54  94 CALM      29.98S
PILOT MOUND      N/A     66  63  88 E7          N/A
THE PAS        CLOUDY    63  57  82 SE7       29.84F
THOMPSON       PTCLDY    50  46  87 S3        29.90F
WINNIPEG       MOCLDY    64  59  82 E7        29.93F
LYNN LAKE      RAIN      55  50  82 MISG      29.79S
CHURCHILL      PTCLDY    45  43  93 S8        29.89F
GILLAM         PTCLDY    46  39  76 S7        29.94S
$$
                ***SASKATCHEWAN***

CITY           SKY/WX    TMP DP  RH WIND       PRES   REMARKS
ESTEVAN        MOCLDY    64  64 100 N6        29.81R
KINDERSLEY     MOCLDY    59  55  88 NW9       29.81S
LLOYDMINSTER   LGT RAIN  59  54  82 SW9       29.82F
PRINCE ALBERT  LGT RAIN  64  63  94 E3        29.82
REGINA         MOCLDY    63  59  88 E21G26    29.78F
YORKTON        RAIN      63  61  94 VRB6      29.92F FOG
N. BATTLEFORD  CLOUDY    59  54  82 CALM      29.82F   C1F1C2F2C3F3C4F4C5F5C6F6C7F7C8F8C9F9CaFaCbFbCcFcCdFdCe!


USA.gov is the U.S. government's official web portal to all federal, state and local government web resources and services.